Adelanto, California, United States (92301)
Lat: 34.58N, Lon: 117.41W
Wx Zone: CAZ060
Local Info
Past Weather Observations for Yesterday

NOTE: This archive is for the closest National Weather Service station to Adelanto. Information may differ from the station used for current weather conditions.

Click here for Long-term Archive

Time Weather Temperature Dewpoint Humidity Pressure Winds Precip Visibility
23:55
Clear
75°F / 24°C 30°F / -1°C 19% 29.92 in
(1013 mb)
SSW 9.2 mph
(SSW 15 kph)
- 10SM
23:35
Clear
73°F / 23°C 32°F / 0°C 22% 29.92 in
(1013 mb)
SSW 6.9 mph
(SSW 11 kph)
- 10SM
23:15
Clear
73°F / 23°C 34°F / 1°C 23% 29.92 in
(1013 mb)
SW 6.9 mph
(SW 11 kph)
- 10SM
22:55
Clear
73°F / 23°C 34°F / 1°C 23% 29.92 in
(1013 mb)
Calm - 10SM
22:35
Clear
73°F / 23°C 34°F / 1°C 23% 29.92 in
(1013 mb)
SSW 10.4 mph
(SSW 17 kph)
- 10SM
22:15
Clear
75°F / 24°C 36°F / 2°C 24% 29.92 in
(1013 mb)
SSW 8.1 mph
(SSW 13 kph)
- 10SM
21:55
Clear
75°F / 24°C 36°F / 2°C 24% 29.92 in
(1013 mb)
SSW 11.5 mph
(SSW 19 kph)
- 10SM
21:35
Clear
75°F / 24°C 36°F / 2°C 24% 29.95 in
(1014 mb)
SSW 9.2 mph
(SSW 15 kph)
- 10SM
21:15
Clear
75°F / 24°C 36°F / 2°C 24% 29.95 in
(1014 mb)
SSW 13.8 mph
(SSW 22 kph)
- 10SM
20:55
Clear
77°F / 25°C 37°F / 3°C 24% 29.95 in
(1014 mb)
SSW 13.8 mph
(SSW 22 kph)
- 10SM
20:35
Clear
77°F / 25°C 37°F / 3°C 24% 29.92 in
(1013 mb)
SSW 15 mph
(SSW 24 kph)
- 10SM
20:15
Clear
79°F / 26°C 39°F / 4°C 24% 29.92 in
(1013 mb)
W 16.1 mph
(W 26 kph)
- 10SM
19:55
Clear
79°F / 26°C 39°F / 4°C 24% 29.92 in
(1013 mb)
W 17.3 mph
(W 28 kph)
- 10SM
19:35
Clear
81°F / 27°C 30°F / -1°C 16% 29.92 in
(1013 mb)
W 17.3 mph
(W 28 kph)
- 10SM
19:15
Clear
82°F / 28°C 32°F / 0°C 16% 29.92 in
(1013 mb)
W 17.3 mph
(W 28 kph)
- 10SM
18:55
Clear
84°F / 29°C 32°F / 0°C 15% 29.89 in
(1012 mb)
W 23 mph
(W 37 kph)
- 7SM
18:35
Clear
86°F / 30°C 32°F / 0°C 14% 29.89 in
(1012 mb)
W 20.7 mph
(W 33 kph)
- 10SM
18:15
Clear
88°F / 31°C 34°F / 1°C 15% 29.89 in
(1012 mb)
SSW 24.2 mph
(SSW 39 kph)
- 10SM
17:55
Clear
90°F / 32°C 27°F / -3°C 10% 29.89 in
(1012 mb)
Calm - 10SM
17:35
Clear
90°F / 32°C 28°F / -2°C 11% 29.89 in
(1012 mb)
Calm - 10SM
17:15
Clear
90°F / 32°C 27°F / -3°C 10% 29.89 in
(1012 mb)
Calm - 10SM
16:55
Clear
91°F / 33°C 28°F / -2°C 10% 29.89 in
(1012 mb)
NE 8.1 mph
(NE 13 kph)
- 10SM
16:35
Clear
90°F / 32°C 27°F / -3°C 10% 29.89 in
(1012 mb)
Calm - 10SM
16:15
Clear
91°F / 33°C 27°F / -3°C 10% 29.89 in
(1012 mb)
NE 4.6 mph
(NE 7 kph)
- 10SM
15:55
Partly Cloudy
91°F / 33°C 27°F / -3°C 10% 29.92 in
(1013 mb)
Calm - 10SM
15:35
Partly Cloudy
90°F / 32°C 25°F / -4°C 9% 29.92 in
(1013 mb)
Calm - 10SM
15:15
Partly Cloudy
91°F / 33°C 25°F / -4°C 9% 29.92 in
(1013 mb)
N 8.1 mph
(N 13 kph)
- 10SM
14:55
Partly Cloudy
91°F / 33°C 25°F / -4°C 9% 29.92 in
(1013 mb)
NW 10.4 mph
(NW 17 kph)
- 10SM
14:35
Partly Cloudy
91°F / 33°C 27°F / -3°C 10% 29.92 in
(1013 mb)
N 8.1 mph
(N 13 kph)
- 10SM
14:15
Partly Cloudy
91°F / 33°C 27°F / -3°C 10% 29.95 in
(1014 mb)
SE 3.5 mph
(SE 6 kph)
- 10SM
13:55
Partly Cloudy
91°F / 33°C 27°F / -3°C 10% 29.95 in
(1014 mb)
N 10.4 mph
(N 17 kph)
- 10SM
13:35
Partly Cloudy
90°F / 32°C 27°F / -3°C 10% 29.95 in
(1014 mb)
N 9.2 mph
(N 15 kph)
- 10SM
13:15
Partly Cloudy
91°F / 33°C 28°F / -2°C 10% 29.95 in
(1014 mb)
NNW 5.8 mph
(NNW 9 kph)
- 10SM
12:55
Partly Cloudy
90°F / 32°C 28°F / -2°C 11% 29.95 in
(1014 mb)
N 9.2 mph
(N 15 kph)
- 10SM
12:35
Partly Cloudy
90°F / 32°C 28°F / -2°C 11% 29.98 in
(1015 mb)
ENE 8.1 mph
(ENE 13 kph)
- 10SM
12:15
Partly Cloudy
90°F / 32°C 30°F / -1°C 12% 29.98 in
(1015 mb)
NE 9.2 mph
(NE 15 kph)
- 10SM
11:55
Partly Cloudy
88°F / 31°C 28°F / -2°C 12% 29.98 in
(1015 mb)
Calm - 10SM
11:35
Partly Cloudy
88°F / 31°C 28°F / -2°C 12% 29.98 in
(1015 mb)
NE 9.2 mph
(NE 15 kph)
- 10SM
11:15
Partly Cloudy
86°F / 30°C 30°F / -1°C 13% 29.98 in
(1015 mb)
N 4.6 mph
(N 7 kph)
- 10SM
10:55
Partly Cloudy
86°F / 30°C 30°F / -1°C 13% 29.98 in
(1015 mb)
NE 4.6 mph
(NE 7 kph)
- 10SM
10:35
Partly Cloudy
84°F / 29°C 30°F / -1°C 14% 30.01 in
(1016 mb)
Calm - 10SM
10:15
Partly Cloudy
84°F / 29°C 34°F / 1°C 16% 30.01 in
(1016 mb)
Calm - 10SM
09:55
Partly Cloudy
82°F / 28°C 34°F / 1°C 17% 30.01 in
(1016 mb)
Calm - 10SM
09:35
Partly Cloudy
82°F / 28°C 34°F / 1°C 17% 30.01 in
(1016 mb)
Calm - 10SM
09:15
Partly Cloudy
81°F / 27°C 36°F / 2°C 20% 30.01 in
(1016 mb)
WNW 6.9 mph
(WNW 11 kph)
- 10SM
08:55
Partly Cloudy
81°F / 27°C 36°F / 2°C 20% 30.01 in
(1016 mb)
NNW 6.9 mph
(NNW 11 kph)
- 10SM
08:35
Partly Cloudy
79°F / 26°C 36°F / 2°C 21% 30.01 in
(1016 mb)
Calm - 10SM
08:15
Clear
77°F / 25°C 36°F / 2°C 22% 30.01 in
(1016 mb)
W 5.8 mph
(W 9 kph)
- 10SM
07:55
Clear
77°F / 25°C 36°F / 2°C 22% 30.01 in
(1016 mb)
WNW 8.1 mph
(WNW 13 kph)
- 10SM
07:35
Partly Cloudy
75°F / 24°C 36°F / 2°C 24% 30.01 in
(1016 mb)
W 9.2 mph
(W 15 kph)
- 7SM
07:15
Partly Cloudy
73°F / 23°C 37°F / 3°C 27% 30.01 in
(1016 mb)
W 10.4 mph
(W 17 kph)
- 10SM
06:55
Clear
73°F / 23°C 37°F / 3°C 27% 30.01 in
(1016 mb)
SSW 9.2 mph
(SSW 15 kph)
- 10SM
06:35
Clear
72°F / 22°C 37°F / 3°C 29% 30.01 in
(1016 mb)
Calm - 10SM
06:15
Clear
66°F / 19°C 39°F / 4°C 37% 30.01 in
(1016 mb)
Calm - 10SM
05:55
Partly Cloudy
64°F / 18°C 41°F / 5°C 43% 30.01 in
(1016 mb)
Calm - 10SM
05:35
Clear
63°F / 17°C 43°F / 6°C 49% 30.01 in
(1016 mb)
Calm - 10SM
05:15
Clear
61°F / 16°C 39°F / 4°C 45% 30.01 in
(1016 mb)
Calm - 10SM
04:55
Clear
63°F / 17°C 39°F / 4°C 42% 29.98 in
(1015 mb)
Calm - 10SM
04:35
Clear
61°F / 16°C 43°F / 6°C 52% 29.98 in
(1015 mb)
Calm - 10SM
04:15
Clear
61°F / 16°C 43°F / 6°C 52% 29.98 in
(1015 mb)
Calm - 10SM
03:55
Clear
63°F / 17°C 43°F / 6°C 49% 29.98 in
(1015 mb)
Calm - 10SM
03:35
Clear
63°F / 17°C 43°F / 6°C 49% 29.98 in
(1015 mb)
Calm - 10SM
03:15
Clear
61°F / 16°C 43°F / 6°C 52% 29.98 in
(1015 mb)
S 6.9 mph
(S 11 kph)
- 10SM
02:55
Clear
61°F / 16°C 43°F / 6°C 52% 29.98 in
(1015 mb)
Calm - 10SM
02:35
Clear
63°F / 17°C 43°F / 6°C 49% 29.98 in
(1015 mb)
Calm - 10SM
02:15
Clear
64°F / 18°C 39°F / 4°C 40% 29.98 in
(1015 mb)
Calm - 10SM
01:55
Clear
64°F / 18°C 39°F / 4°C 40% 29.98 in
(1015 mb)
Calm - 10SM
01:35
Clear
64°F / 18°C 39°F / 4°C 40% 29.98 in
(1015 mb)
Calm - 10SM
01:15
Clear
66°F / 19°C 39°F / 4°C 37% 29.98 in
(1015 mb)
Calm - 10SM
00:55
Clear
64°F / 18°C 43°F / 6°C 46% 29.98 in
(1015 mb)
Calm - 10SM
00:35
Clear
64°F / 18°C 41°F / 5°C 43% 29.98 in
(1015 mb)
Calm - 10SM
00:15
Clear
66°F / 19°C 43°F / 6°C 43% 29.98 in
(1015 mb)
Calm - 10SM
Time Weather Temperature Dewpoint Humidity Pressure Winds Precip Visibility


Weather for websites

WeatherForYou.com, LLC is not responsible for any damages or problems caused by this service. Current weather conditions are obtained from the closest station including government and personal stations which may have varying degrees of accuracy. Weather forecasts are derived from the NOAA NDFD. Like all things, this site belongs to Jesus Christ... He just trusts us to maintain it. If you have any questions or comments email webmaster@weatherforyou.com

Copyright © 2016, WeatherForYou.com LLC. All rights reserved.